Location: Ferchesar
(52.6477°N, 12.4298°E)
Time: 04:30:51
(UTC+01:00)

Vanguard 1 - Pass Details

Date: 12 December 2021
Orbit: 652 x 3830 km, 34.2° (Epoch: 21 January)

Event Time Altitude Azimuth Distance (km) Brightness Sun altitude
Rises 21:34:29 0° 219° (SW) 6,109 14.2 -49.0°
Reaches altitude 10° 21:38:29 10° 211° (SSW) 5,491 13.8 -49.6°
Enters shadow 21:42:14 19° 201° (SSW) 5,046 13.5 -50.0°
